Tracking 20724 objects as of 2-Jun-2020
HD Live streaming from Space Station
objects crossing your sky now

COSMOS 883

Track COSMOS 883 now!
10-day predictions
COSMOS 883 is classified as:


NORAD ID: 9610
Int'l Code: 1976-122A
Perigee: 960.6 km
Apogee: 1,009.2 km
Inclination: 83.0 °
Period: 104.6 minutes
Semi major axis: 7355 km
RCS: 1.9565 m2 (large)
Launch date: December 15, 1976
Source: Commonwealth of Independent States (former USSR) (CIS)
Launch site: PLESETSK MISSILE AND SPACE COMPLEX (PKMTR)
aabbcc
Your satellite tracking list
Your tracking list is empty




NASA's NSSDC Master Catalog

Two Line Element Set (TLE):
1  9610U 76122A   20154.57157342 +.00000026 +00000-0 +11259-4 0  9990
2  9610 082.9527 099.5401 0033059 261.2732 098.4680 13.76090333181608
Source of the keplerian elements: AFSPC